Location: Charroux
(46.1847°N, 3.1616°E)
Time: 12:33:39
(UTC+00:00)

Daily predictions for brighter satellites

Satellite Brightness Start Highest point End
(mag) Time Altitude Azimuth Time Altitude Azimuth Time Altitude Azimuth
NOSS 3-1 (C) 4.1 17:04:07 10° NW 17:11:31 70° NE 17:20:08 10° SE
COSMO-SKYMED 1 3.6 17:10:26 10° NE 17:14:08 27° E 17:17:48 10° SSE
Cosmos 1937 Rocket 4.2 17:10:41 10° SSE 17:15:26 35° ESE 17:20:14 10° NE
Aureole 3 2.7 17:14:20 10° N 17:17:22 54° ENE 17:20:18 10° SSE
Okean 1-7 Rocket 3.7 17:12:52 10° S 17:17:27 90° ENE 17:22:03 10° N
USA 290 3.6 17:18:53 10° N 17:21:15 19° ENE 17:23:36 10° ESE
NOSS 2-1 (C) 2.8 17:19:49 10° SSW 17:23:10 75° SE 17:26:37 10° NE
Cosmos 1833 Rocket 3.2 17:19:50 10° NNW 17:25:04 38° NE 17:30:17 10° ESE
Lacrosse 5 4.3 17:23:01 10° WNW 17:27:13 27° SW 17:31:23 10° S
H-2A R/B 3.0 17:24:08 10° ESE 17:28:17 26° ENE 17:32:31 10° N
Meteor 1-21 Rocket 4.2 17:23:32 10° S 17:29:02 72° E 17:34:38 10° NNE
NOSS 2-1 (D) 2.8 17:25:45 10° SW 17:29:06 88° SE 17:32:34 10° NE
Cosmos 1939 Rocket 2.9 17:26:17 10° SSE 17:30:18 60° ENE 17:34:17 10° N
Helios 1A Rocket 4.4 17:28:05 10° ESE 17:30:52 18° ENE 17:33:40 10° NNE
Cosmos 2344 4.4 17:22:17 10° NW 17:31:16 62° NE 17:43:43 10° SE
H-2A R/B 2.1 17:27:06 10° NNE 17:31:30 85° WNW 17:35:46 10° SSW
USA 229 DEB 3.9 17:25:43 10° NW 17:33:00 69° NE 17:40:39 10° SE
Cosmos 44 3.6 17:28:16 10° SW 17:33:05 72° NW 17:38:15 10° NNE
USA 229 3.9 17:25:50 10° NW 17:33:06 69° NE 17:40:46 10° SE
Cosmos 1602 Rocket 3.7 17:29:02 10° S 17:33:15 51° E 17:37:32 10° NNE
CZ-3B R/B 2.0 17:31:47 10° NW 17:34:15 52° NE 17:40:48 10° ESE
Cosmos 2026 Rocket 4.3 17:28:46 10° SSE 17:34:32 44° E 17:40:25 10° NNE
SeaSat 1 3.9 17:30:45 10° NNE 17:35:11 34° NW 17:39:36 10° WSW
Feng Yun 1-1 Rocket 4.3 17:30:18 10° SSE 17:35:41 60° ENE 17:41:14 10° N
CSL-04 DEB 4.5 17:32:05 10° NNE 17:36:08 56° ESE 17:40:03 10° S
SJ 16-02 2.5 17:32:04 10° SW 17:36:17 44° WNW 17:40:32 10° N
Cosmos 2112 Rocket 4.0 17:32:41 10° NNW 17:37:57 90° WSW 17:43:08 10° SSE
Cosmos 990 Rocket 4.0 17:34:30 10° SSW 17:39:42 87° ESE 17:44:55 10° NNE
YAOGAN 1 3.4 17:36:04 10° SE 17:39:45 28° ENE 17:43:26 10° N
Cosmos 1844 Rocket 3.7 17:36:05 10° SW 17:41:31 46° WNW 17:46:57 10° NNE
H-2A R/B 4.0 17:37:48 10° S 17:41:44 41° W 17:45:50 10° NNW
Cosmos 1689 Rocket 3.7 17:41:34 15° E 17:41:57 15° E 17:43:42 10° SE
Aureole 3 Rocket 3.0 17:39:59 10° N 17:43:06 40° E 17:46:55 10° SSE
COSMOS 2406 3.3 17:38:50 10° NNW 17:44:34 59° ENE 17:50:15 10° SE
Cosmos 2082 Rocket 2.9 17:39:42 10° NNW 17:44:49 32° NE 17:49:52 10° ESE
Cosmos 1703 3.2 17:43:23 10° S 17:47:15 86° E 17:51:09 10° N
Cosmos 1825 Rocket 4.3 17:44:32 10° SSE 17:48:23 31° E 17:52:16 10° NNE
NOSS 3-1 (A) 4.1 17:41:13 10° NW 17:48:41 74° NE 17:57:21 10° SE
X-37B 1.0 17:45:49 10° W 17:48:58 60° S 17:51:36 14° ESE
IRS-1C Rocket 4.1 17:44:04 10° SSE 17:49:11 57° ENE 17:54:21 10° N
ISS -2.5 17:48:45 10° WNW 17:51:50 31° N 17:53:50 17° NE
Cosmos 1812 Rocket 3.4 17:47:58 10° N 17:52:22 78° E 17:56:42 10° SSE
Okean O Rocket 2.9 17:50:51 10° S 17:55:06 45° W 17:59:21 10° NNW
ATLAS 5 CENTAUR R/B 4.1 17:55:22 10° NW 17:57:11 12° N 17:59:05 10° NNE
CZ-4 R/B 1.5 17:55:27 10° SE 17:59:19 47° ENE 18:03:08 10° N
Iridium 4 Rocket 3.4 17:55:23 10° N 18:00:44 63° E 18:05:35 10° SSE
Cosmos 2195 Rocket 4.5 17:55:46 10° S 18:02:06 83° E 18:08:28 10° N
ERS-2 2.4 17:58:52 10° NNE 18:02:22 42° E 18:05:50 10° S
SKYMED 2 3.5 17:58:01 10° NNE 18:02:24 83° ESE 18:06:45 10° SSW
CSL-04 Rocket 4.2 17:58:55 10° SE 18:03:49 35° ENE 18:08:48 10° N
Okean-O 2.7 18:02:30 10° SSE 18:06:48 53° ENE 18:11:08 10° N
CZ-4C R/B 4.3 18:03:42 10° NW 18:07:41 17° N 18:11:46 11° NE
S3M 4.4 18:03:05 10° N 18:08:44 38° ENE 18:14:22 10° SE
Cosmos 1428 Rocket 4.5 18:03:48 10° S 18:10:06 80° E 18:16:26 10° N
USA 234 4.2 18:05:52 15° NE 18:10:29 35° N 18:16:15 10° WNW
Cosmos 1340 3.2 18:07:07 10° SSW 18:10:49 61° WNW 18:14:32 10° N
Cosmos 1346 Rocket 2.9 18:07:30 10° S 18:11:18 51° E 18:15:09 10° NNE
Cosmos 2278 Rocket 2.2 18:06:00 10° SSW 18:11:36 66° ESE 18:17:11 10° NNE
Cosmos 1953 Rocket 4.0 18:10:49 10° SSE 18:14:49 37° E 18:17:58 15° NNE
CZ-2C R/B 3.4 18:09:50 10° S 18:15:19 81° WSW 18:21:06 10° NNW
Cosmos 2292 Rocket 4.0 18:15:08 10° SSE 18:19:33 35° E 18:20:40 30° ENE
SAR-Lupe-4 3.5 18:17:50 18° NNE 18:20:19 57° ESE 18:23:50 10° S
Cosmos 44 Rocket 3.9 18:17:19 10° S 18:21:48 36° ESE 18:23:19 29° E
Cosmos 405 3.6 18:19:05 10° NNW 18:22:33 58° W 18:26:01 10° S
ARGOS 3.1 18:23:37 10° SSE 18:28:53 59° ENE 18:34:11 10° N
TELKOM 3 4.3 18:27:11 10° WNW 18:28:35 32° NW 18:28:35 32° NW
Cosmos 1869 3.8 18:27:07 10° N 18:30:11 38° NE 18:30:11 38° NE
Meteor 2-19 Rocket 4.4 18:24:47 10° S 18:30:58 89° E 18:37:10 10° N
PSLV R/B 3.9 18:29:27 10° NNE 18:33:42 89° SE 18:37:54 10° SSW
Cosmos 372 Rocket 3.9 18:30:04 10° SSW 18:35:16 87° ESE 18:39:58 13° NNE
SAR-Lupe-1 4.0 18:34:04 21° NNE 18:36:24 89° W 18:39:58 10° SSW
CZ-4B R/B 3.4 18:34:21 10° N 18:37:12 27° WNW 18:39:59 10° SW
CZ-2C R/B 3.0 18:33:45 12° NNE 18:38:46 44° E 18:44:06 10° S
Cosmos 494 Rocket 4.2 18:37:00 10° N 18:41:55 43° ENE 18:42:29 42° E
Cosmos 2150 Rocket 4.0 18:39:31 10° S 18:44:31 54° ESE 18:45:58 40° NE
TRAILBLAZER 4.5 18:40:12 10° NW 18:44:51 81° NE 18:46:35 39° SE
MOS 1 Rocket 4.2 18:41:03 10° N 18:45:08 44° WNW 18:49:15 10° SW
Cosmos 1048 Rocket 3.8 18:41:53 10° NNW 18:47:00 67° ENE 18:49:36 29° SE
Cosmos-2242 3.8 18:43:02 10° NNW 18:47:13 52° W 18:51:24 10° S
COSMO-SKYMED 1 4.3 18:46:26 10° N 18:50:19 32° WNW 18:54:11 10° SW
Cosmos 2297 4.3 18:47:07 10° S 18:51:23 35° SE 18:51:23 35° SE
SL-08 RB Rocket 3.5 18:59:18 47° SSE 19:00:35 80° ENE 19:05:05 10° N
CSL-04 Debris 4.3 18:57:22 10° S 19:02:44 75° WSW 19:08:09 10° NNW
Helios 1A Rocket 3.8 19:01:38 10° S 19:05:39 49° W 19:09:42 10° NNW
H-2A R/B 3.0 19:02:34 10° S 19:07:25 47° W 19:12:27 10° NNW
Cosmos 1833 Rocket 4.1 19:03:51 10° NW 19:08:58 37° WSW 19:14:04 10° S
Cosmos 1125 Rocket 3.5 19:04:00 10° S 19:08:41 62° SE 19:08:41 62° SE
Cosmos 1809 Rocket 4.3 19:03:31 10° S 19:09:38 82° E 19:15:50 10° N
Cosmos 2298 Rocket 4.0 19:06:30 10° SSW 19:11:49 84° WNW 19:13:35 44° NNE
Cosmos 2266 Rocket 3.8 19:07:34 10° S 19:13:48 80° E 19:19:58 10° N
YAOGAN 1 4.4 19:11:55 10° SSW 19:15:45 31° W 19:19:38 10° NNW
NOSS 2-2 (C) 4.4 19:14:21 10° NW 19:19:42 68° NE 19:20:07 66° ENE
In-Cosmos 22 Rocket 4.4 19:17:47 10° SSW 19:23:34 74° WNW 19:29:16 10° N
X-37B 3.5 19:22:44 10° W 19:23:55 17° WSW 19:23:55 17° WSW
Cosmos 1943 Rocket 4.2 19:22:23 10° S 19:23:18 15° S 19:23:18 15° S
Cosmos 2082 Rocket 3.1 19:23:38 10° NW 19:29:05 47° WSW 19:33:42 14° S
ISS -1.0 19:25:51 10° WNW 19:26:49 17° NW 19:26:49 17° NW
CZ-4 R/B 4.4 19:32:06 10° SW 19:34:35 16° W 19:37:01 10° NW
ATLAS 5 CENTAUR R/B 4.4 19:41:39 10° NNW 19:42:29 12° N 19:42:29 12° N
Cosmos 2315 Rocket 4.0 19:40:19 10° N 19:46:33 79° W 19:46:33 79° W
ATLAS 2AS CENTAUR R/B 4.2 19:42:34 10° NW 19:48:21 25° NNE 19:48:21 25° NNE
USA 234 3.9 19:53:13 43° N 19:53:13 43° N 19:58:45 10° NW
Cosmos 2278 Rocket 4.1 19:51:35 10° WSW 19:56:11 25° NW 19:59:05 17° N
CZ-4C R/B 4.1 19:52:54 10° NNW 19:56:58 26° N 19:56:58 26° N
CZ-2C R/B 4.3 20:15:10 15° NNW 20:18:51 31° WNW 20:23:43 10° SW
